Time,TemperatureF,DewpointF,PressureIn,WindDirection,WindDirectionDegrees,WindSpeedMPH,WindSpeedGustMPH,Humidity,HourlyPrecipIn,Conditions,Clouds,dailyrainin,SoftwareType,DateUTC
2013-02-07 00:03:00,32.8,29.9,29.96,NE,45,0.0,0.0,89,0.00,,,0.00,WUHU216HW,2013-02-07 08:03:00,
2013-02-07 00:28:00,32.9,30.1,29.96,North,0,0.0,0.0,89,0.00,,,0.00,WUHU216HW,2013-02-07 08:28:00,
2013-02-07 00:33:00,32.9,30.1,29.96,North,0,0.0,0.0,89,0.00,,,0.00,WUHU216HW,2013-02-07 08:33:00,
2013-02-07 00:58:00,32.8,29.9,29.95,NW,315,0.0,0.0,89,0.00,,,0.00,WUHU216HW,2013-02-07 08:58:00,
2013-02-07 01:03:00,32.8,29.9,29.95,NW,315,0.0,0.0,89,0.00,,,0.00,WUHU216HW,2013-02-07 09:03:00,
2013-02-07 01:28:00,32.4,29.5,29.94,WSW,248,0.0,0.0,89,0.00,,,0.00,WUHU216HW,2013-02-07 09:28:00,
2013-02-07 01:33:00,32.4,29.5,29.94,WSW,248,0.0,0.0,89,0.00,,,0.00,WUHU216HW,2013-02-07 09:33:00,
2013-02-07 01:58:00,32.6,29.7,29.94,NNE,23,0.4,0.4,89,0.00,,,0.00,WUHU216HW,2013-02-07 09:58:00,
2013-02-07 02:03:00,32.6,29.7,29.94,NNE,23,0.4,0.4,89,0.00,,,0.00,WUHU216HW,2013-02-07 10:03:00,
2013-02-07 02:28:00,31.9,29.1,29.93,NE,45,0.9,0.9,89,0.00,,,0.00,WUHU216HW,2013-02-07 10:28:00,
2013-02-07 02:33:00,31.9,29.1,29.93,NE,45,0.9,0.9,89,0.00,,,0.00,WUHU216HW,2013-02-07 10:33:00,
2013-02-07 02:58:00,32.0,29.3,29.91,NNE,23,0.0,0.0,89,0.00,,,0.00,WUHU216HW,2013-02-07 10:58:00,
2013-02-07 03:03:00,32.0,29.3,29.91,NNE,23,0.0,0.0,89,0.00,,,0.00,WUHU216HW,2013-02-07 11:03:00,
2013-02-07 03:28:00,31.7,28.9,29.91,NNE,23,0.0,0.0,89,0.00,,,0.00,WUHU216HW,2013-02-07 11:28:00,
2013-02-07 03:33:00,31.7,28.9,29.91,NNE,23,0.0,0.0,89,0.00,,,0.00,WUHU216HW,2013-02-07 11:33:00,
2013-02-07 03:58:00,31.1,28.4,29.90,WSW,248,0.0,0.0,89,0.00,,,0.00,WUHU216HW,2013-02-07 11:58:00,
2013-02-07 04:03:00,31.1,28.4,29.90,WSW,248,0.0,0.0,89,0.00,,,0.00,WUHU216HW,2013-02-07 12:03:00,
2013-02-07 04:28:00,31.0,28.2,29.91,East,90,0.4,0.4,89,0.00,,,0.00,WUHU216HW,2013-02-07 12:28:00,
2013-02-07 04:33:00,31.0,28.2,29.91,East,90,0.4,0.4,89,0.00,,,0.00,WUHU216HW,2013-02-07 12:33:00,
2013-02-07 04:58:00,31.1,28.6,29.92,SSW,203,0.0,0.0,90,0.00,,,0.00,WUHU216HW,2013-02-07 12:58:00,
2013-02-07 05:03:00,31.1,28.6,29.92,SSW,203,0.0,0.0,90,0.00,,,0.00,WUHU216HW,2013-02-07 13:03:00,
2013-02-07 05:28:00,31.1,28.9,29.92,NNW,338,0.0,0.0,91,0.00,,,0.00,WUHU216HW,2013-02-07 13:28:00,
2013-02-07 05:33:00,31.1,28.9,29.92,NNW,338,0.0,0.0,91,0.00,,,0.00,WUHU216HW,2013-02-07 13:33:00,
2013-02-07 05:58:00,31.3,28.8,29.91,NNE,23,0.0,0.0,90,0.00,,,0.00,WUHU216HW,2013-02-07 13:58:00,
2013-02-07 06:03:00,31.3,28.8,29.91,NNE,23,0.0,0.0,90,0.00,,,0.00,WUHU216HW,2013-02-07 14:03:00,
2013-02-07 06:08:00,31.3,28.8,29.91,NNE,23,0.0,0.0,90,0.00,,,0.00,WUHU216HW,2013-02-07 14:08:00,
2013-02-07 06:28:00,31.3,29.1,29.91,WSW,248,0.4,0.4,91,0.00,,,0.00,WUHU216HW,2013-02-07 14:28:00,
2013-02-07 06:33:00,31.3,29.1,29.91,WSW,248,0.4,0.4,91,0.00,,,0.00,WUHU216HW,2013-02-07 14:33:00,
2013-02-07 06:58:00,31.5,29.3,29.91,NE,45,0.7,0.7,91,0.00,,,0.00,WUHU216HW,2013-02-07 14:58:00,
2013-02-07 07:03:00,31.5,29.0,29.91,NE,45,0.7,0.7,90,0.00,,,0.00,WUHU216HW,2013-02-07 15:03:00,
2013-02-07 07:08:00,31.5,29.0,29.91,NE,45,0.7,0.7,90,0.00,,,0.00,WUHU216HW,2013-02-07 15:08:00,
2013-02-07 07:28:00,32.0,30.1,29.92,NNE,23,0.0,0.0,92,0.00,,,0.00,WUHU216HW,2013-02-07 15:28:00,
2013-02-07 07:33:00,32.0,30.1,29.92,NNE,23,0.0,0.0,92,0.00,,,0.00,WUHU216HW,2013-02-07 15:33:00,
2013-02-07 07:58:00,32.4,30.3,29.94,ENE,68,0.0,0.0,92,0.00,,,0.00,WUHU216HW,2013-02-07 15:58:00,
2013-02-07 08:03:00,32.4,30.3,29.94,ENE,68,0.0,0.0,92,0.00,,,0.00,WUHU216HW,2013-02-07 16:03:00,
2013-02-07 08:08:00,32.4,30.3,29.94,ENE,68,0.0,0.0,92,0.00,,,0.00,WUHU216HW,2013-02-07 16:08:00,
2013-02-07 08:28:00,33.5,31.3,29.93,SW,225,0.0,0.0,92,0.00,,,0.00,WUHU216HW,2013-02-07 16:28:00,
2013-02-07 08:33:00,33.5,31.3,29.93,SW,225,0.0,0.0,92,0.00,,,0.00,WUHU216HW,2013-02-07 16:33:00,
2013-02-07 08:58:00,34.4,32.0,29.95,SW,225,0.9,0.9,91,0.00,,,0.00,WUHU216HW,2013-02-07 16:58:00,
2013-02-07 09:03:00,34.4,32.0,29.95,SW,225,0.4,0.9,91,0.00,,,0.00,WUHU216HW,2013-02-07 17:03:00,
2013-02-07 09:08:00,34.4,32.0,29.95,SW,225,0.4,0.4,91,0.00,,,0.00,WUHU216HW,2013-02-07 17:08:00,
2013-02-07 09:28:00,35.6,33.5,29.95,NE,45,0.0,0.0,92,0.01,,,0.00,WUHU216HW,2013-02-07 17:28:00,
2013-02-07 09:33:00,35.6,33.5,29.95,NE,45,0.0,0.0,92,0.01,,,0.00,WUHU216HW,2013-02-07 17:33:00,
2013-02-07 09:58:00,36.0,33.8,29.95,NNE,23,0.4,0.4,92,0.01,,,0.01,WUHU216HW,2013-02-07 17:58:00,
2013-02-07 10:03:00,36.0,33.8,29.95,NNE,23,0.4,0.4,92,0.01,,,0.01,WUHU216HW,2013-02-07 18:03:00,
2013-02-07 10:28:00,37.1,34.9,29.95,NE,45,2.5,2.5,92,0.01,,,0.01,WUHU216HW,2013-02-07 18:28:00,
2013-02-07 10:33:00,37.1,34.9,29.95,NE,45,2.5,2.5,92,0.01,,,0.01,WUHU216HW,2013-02-07 18:33:00,
2013-02-07 10:58:00,38.3,35.9,29.95,ENE,68,0.7,0.7,91,0.01,,,0.02,WUHU216HW,2013-02-07 18:58:00,
2013-02-07 11:03:00,38.3,35.9,29.95,ENE,68,0.7,0.7,91,0.01,,,0.02,WUHU216HW,2013-02-07 19:03:00,
2013-02-07 11:28:00,39.8,37.1,29.94,ENE,68,0.4,0.4,90,0.00,,,0.02,WUHU216HW,2013-02-07 19:28:00,
2013-02-07 11:33:00,39.8,37.1,29.94,ENE,68,0.4,0.4,90,0.00,,,0.02,WUHU216HW,2013-02-07 19:33:00,
2013-02-07 11:58:00,40.5,37.5,29.93,NE,45,1.3,1.3,89,0.00,,,0.02,WUHU216HW,2013-02-07 19:58:00,
2013-02-07 12:03:00,40.5,37.5,29.93,NE,45,1.3,1.3,89,0.00,,,0.02,WUHU216HW,2013-02-07 20:03:00,
2013-02-07 12:28:00,41.8,38.2,29.93,NE,45,0.9,0.9,87,0.00,,,0.02,WUHU216HW,2013-02-07 20:28:00,
2013-02-07 12:33:00,41.8,38.2,29.93,NE,45,0.9,0.9,87,0.00,,,0.02,WUHU216HW,2013-02-07 20:33:00,
2013-02-07 12:58:00,41.9,37.7,29.93,ENE,68,0.7,0.7,85,0.00,,,0.02,WUHU216HW,2013-02-07 20:58:00,
2013-02-07 13:03:00,41.9,37.7,29.93,ENE,68,0.7,0.7,85,0.00,,,0.02,WUHU216HW,2013-02-07 21:03:00,
2013-02-07 13:28:00,42.5,38.5,29.92,NE,45,1.1,1.1,86,0.00,,,0.02,WUHU216HW,2013-02-07 21:28:00,
2013-02-07 13:33:00,42.5,38.5,29.92,NE,45,1.1,1.1,86,0.00,,,0.02,WUHU216HW,2013-02-07 21:33:00,
2013-02-07 13:58:00,42.7,38.4,29.92,NNW,338,0.9,0.9,85,0.00,,,0.02,WUHU216HW,2013-02-07 21:58:00,
2013-02-07 14:03:00,42.7,38.4,29.92,NNW,338,0.9,0.9,85,0.00,,,0.02,WUHU216HW,2013-02-07 22:03:00,
2013-02-07 14:28:00,42.5,38.3,29.93,North,0,1.1,1.1,85,0.00,,,0.02,WUHU216HW,2013-02-07 22:28:00,
2013-02-07 14:33:00,42.5,38.3,29.93,North,0,1.1,1.1,85,0.00,,,0.02,WUHU216HW,2013-02-07 22:33:00,
2013-02-07 14:58:00,41.6,37.1,29.93,NW,315,0.4,0.4,84,0.00,,,0.02,WUHU216HW,2013-02-07 22:58:00,
2013-02-07 15:03:00,41.6,37.1,29.93,NW,315,0.4,0.4,84,0.00,,,0.02,WUHU216HW,2013-02-07 23:03:00,
2013-02-07 15:28:00,41.2,36.7,29.94,NE,45,2.5,2.5,84,0.00,,,0.02,WUHU216HW,2013-02-07 23:28:00,
2013-02-07 15:33:00,41.2,36.7,29.94,NE,45,2.5,2.5,84,0.00,,,0.02,WUHU216HW,2013-02-07 23:33:00,
2013-02-07 15:58:00,40.9,36.4,29.94,NE,45,0.4,0.4,84,0.00,,,0.02,WUHU216HW,2013-02-07 23:58:00,
2013-02-07 16:03:00,40.9,36.4,29.94,NE,45,0.7,0.7,84,0.00,,,0.02,WUHU216HW,2013-02-08 00:03:00,
2013-02-07 16:08:00,40.9,36.4,29.94,NE,45,0.7,0.7,84,0.00,,,0.02,WUHU216HW,2013-02-08 00:08:00,
2013-02-07 16:28:00,40.3,36.1,29.95,SE,135,0.0,0.0,85,0.00,,,0.02,WUHU216HW,2013-02-08 00:28:00,
2013-02-07 16:33:00,40.3,36.1,29.95,SE,135,0.0,0.0,85,0.00,,,0.02,WUHU216HW,2013-02-08 00:33:00,
2013-02-07 16:58:00,39.8,36.2,29.95,ENE,68,0.4,0.4,87,0.00,,,0.02,WUHU216HW,2013-02-08 00:58:00,
2013-02-07 17:03:00,39.8,36.2,29.95,ENE,68,0.7,0.7,87,0.00,,,0.02,WUHU216HW,2013-02-08 01:03:00,
2013-02-07 17:08:00,39.8,36.2,29.95,ENE,68,0.7,0.7,87,0.00,,,0.02,WUHU216HW,2013-02-08 01:08:00,
2013-02-07 17:28:00,38.5,34.9,29.96,ENE,68,0.4,0.4,87,0.00,,,0.02,WUHU216HW,2013-02-08 01:28:00,
2013-02-07 17:33:00,38.5,34.9,29.96,ENE,68,0.4,0.4,87,0.00,,,0.02,WUHU216HW,2013-02-08 01:33:00,
2013-02-07 17:58:00,37.6,34.4,29.97,NE,45,0.0,0.0,88,0.00,,,0.02,WUHU216HW,2013-02-08 01:58:00,
2013-02-07 18:03:00,37.6,34.4,29.97,NE,45,0.0,0.0,88,0.00,,,0.02,WUHU216HW,2013-02-08 02:03:00,
2013-02-07 18:08:00,37.6,34.4,29.97,NE,45,0.0,0.0,88,0.00,,,0.02,WUHU216HW,2013-02-08 02:08:00,
2013-02-07 18:28:00,37.1,33.9,29.97,NE,45,0.0,0.0,88,0.00,,,0.02,WUHU216HW,2013-02-08 02:28:00,
2013-02-07 18:33:00,37.1,33.9,29.97,NE,45,0.0,0.0,88,0.00,,,0.02,WUHU216HW,2013-02-08 02:33:00,
2013-02-07 18:58:00,36.7,33.5,29.97,NE,45,0.0,0.0,88,0.00,,,0.02,WUHU216HW,2013-02-08 02:58:00,
2013-02-07 19:03:00,36.7,33.5,29.97,NE,45,0.0,0.0,88,0.00,,,0.02,WUHU216HW,2013-02-08 03:03:00,
2013-02-07 19:08:00,36.7,33.5,29.97,NE,45,0.0,0.0,88,0.00,,,0.02,WUHU216HW,2013-02-08 03:08:00,
2013-02-07 19:28:00,36.5,33.6,29.98,NNE,23,0.0,0.0,89,0.00,,,0.02,WUHU216HW,2013-02-08 03:28:00,
2013-02-07 19:33:00,36.5,33.6,29.98,NNE,23,0.0,0.0,89,0.00,,,0.02,WUHU216HW,2013-02-08 03:33:00,
2013-02-07 19:58:00,36.4,33.4,29.98,NNE,23,0.0,0.0,89,0.00,,,0.02,WUHU216HW,2013-02-08 03:58:00,
2013-02-07 20:03:00,36.4,33.4,29.98,NNE,23,0.0,0.0,89,0.00,,,0.02,WUHU216HW,2013-02-08 04:03:00,
2013-02-07 20:28:00,36.0,33.0,29.99,NNE,23,0.0,0.0,89,0.00,,,0.02,WUHU216HW,2013-02-08 04:28:00,
2013-02-07 20:33:00,36.0,33.0,29.99,NNE,23,0.0,0.0,89,0.00,,,0.02,WUHU216HW,2013-02-08 04:33:00,
2013-02-07 20:58:00,35.6,32.7,29.99,NNE,23,0.0,0.0,89,0.00,,,0.02,WUHU216HW,2013-02-08 04:58:00,
2013-02-07 21:00:00,35.6,32.7,29.99,NNE,23,0.0,0.0,89,0.00,,,0.02,WUHU216HW,2013-02-08 05:00:00,
2013-02-07 21:01:00,35.6,32.7,29.99,NNE,23,0.0,0.0,89,0.00,,,0.02,WUHU216HW,2013-02-08 05:01:00,
2013-02-07 21:06:00,35.6,32.7,29.99,NNE,23,0.0,0.0,89,0.00,,,0.02,WUHU216HW,2013-02-08 05:06:00,
2013-02-07 21:28:00,35.3,32.6,29.99,NNE,23,0.0,0.0,90,0.00,,,0.02,WUHU216HW,2013-02-08 05:28:00,
2013-02-07 21:33:00,35.3,32.6,29.99,NNE,23,0.0,0.0,90,0.00,,,0.02,WUHU216HW,2013-02-08 05:33:00,
2013-02-07 21:58:00,34.9,32.2,30.00,NNE,23,0.0,0.0,90,0.00,,,0.02,WUHU216HW,2013-02-08 05:58:00,
2013-02-07 22:03:00,34.9,32.2,30.00,NNE,23,0.0,0.0,90,0.00,,,0.02,WUHU216HW,2013-02-08 06:03:00,
2013-02-07 22:28:00,34.9,32.8,30.00,NE,45,0.0,0.0,92,0.00,,,0.02,WUHU216HW,2013-02-08 06:28:00,
2013-02-07 22:33:00,34.9,32.8,30.00,NE,45,0.0,0.0,92,0.00,,,0.02,WUHU216HW,2013-02-08 06:33:00,
2013-02-07 22:58:00,34.7,32.3,30.01,NE,45,0.0,0.0,91,0.00,,,0.02,WUHU216HW,2013-02-08 06:58:00,
2013-02-07 23:03:00,34.7,32.3,30.01,NE,45,0.0,0.0,91,0.00,,,0.02,WUHU216HW,2013-02-08 07:03:00,
2013-02-07 23:28:00,34.6,32.1,30.02,NE,45,0.0,0.0,91,0.00,,,0.02,WUHU216HW,2013-02-08 07:28:00,
2013-02-07 23:33:00,34.6,32.1,30.02,NE,45,0.0,0.0,91,0.00,,,0.02,WUHU216HW,2013-02-08 07:33:00,
2013-02-07 23:58:00,34.6,32.1,30.02,NE,45,0.0,0.0,91,0.01,,,0.00,WUHU216HW,2013-02-08 07:58:00,